QPF
0.01 0.01 0.01 0.02 0.03 0.04 0.05 0.05 0.04 0.04 0.04 0.03 0.03 0.04 0.04 0.04 0.04 0.04 0.04 0.04 0.04 0.04 0.04 0.05 0.05 0.04 0.04 0.03 0.03 0.03 0.03 0.02 0.02 0.02 0.02 0.02 0.01 0.01 0.02 0.02 0.02 0.02 0.02
0.01 0.01 0.01 0.01 0.02 0.04 0.04 0.05 0.05 0.05 0.05 0.04 0.03 0.03 0.02 0.02 0.03 0.03 0.04 0.04 0.05 0.04 0.04 0.04 0.04 0.04 0.05 0.05 0.04 0.04 0.03 0.02 0.02 0.02 0.01 0.01 0.01 0.01 0.01 0.01 0.02 0.02 0.02
0.02 0.01 0.01 0.02 0.02 0.02 0.02 0.03 0.04 0.04 0.04 0.04 0.04 0.03 0.02 0.01 0.02 0.02 0.03 0.03 0.04 0.04 0.04 0.04 0.04 0.04 0.04 0.04 0.04 0.04 0.04 0.03 0.03 0.03 0.02 0.01 0.01 0.01 0.01 0.01 0.01 0.01 0.01
0.01 0.01 0.01 0.02 0.02 0.02 0.02 0.02 0.02 0.03 0.03 0.03 0.03 0.02 0.03 0.03 0.02 0.02 0.02 0.03 0.04 0.05 0.05 0.04 0.04 0.04 0.04 0.03 0.03 0.03 0.03 0.04 0.04 0.04 0.03 0.02 0.02 0.02 0.01 0.01 0.01 0.01 0.01
0.01 0.01 0.01 0.01 0.02 0.02 0.03 0.03 0.03 0.03 0.03 0.03 0.02 0.02 0.02 0.02 0.03 0.04 0.03 0.04 0.05 0.06 0.06 0.05 0.04 0.04 0.04 0.03 0.03 0.02 0.02 0.02 0.03 0.03 0.03 0.02 0.02 0.02 0.02 0.01 0.01 0.01 0.01
0.01 0.01 0.01 0.01 0.01 0.01 0.02 0.03 0.03 0.03 0.03 0.03 0.02 0.02 0.02 0.02 0.03 0.04 0.04 0.06 0.06 0.06 0.06 0.06 0.05 0.04 0.04 0.03 0.03 0.03 0.03 0.03 0.03 0.03 0.02 0.02 0.02 0.02 0.01 0.01 0.02 0.02 0.01
0.01 0.01 0.01 0.01 0.01 0.01 0.01 0.02 0.03 0.03 0.03 0.02 0.02 0.02 0.02 0.02 0.02 0.02 0.03 0.05 0.07 0.07 0.07 0.06 0.06 0.05 0.05 0.04 0.04 0.04 0.03 0.03 0.03 0.03 0.02 0.02 0.02 0.02 0.02 0.02 0.02 0.02 0.02
0.01 0.01 0.01 0.01 0.01 0.01 0.01 0.01 0.02 0.02 0.03 0.03 0.02 0.02 0.02 0.02 0.03 0.02 0.02 0.03 0.04 0.06 0.07 0.08 0.08 0.07 0.06 0.06 0.05 0.05 0.04 0.03 0.03 0.02 0.02 0.02 0.02 0.02 0.02 0.02 0.02 0.02 0.02
0.01 0.01 0.01 0.01 0.01 0.01 0.01 0.01 0.01 0.02 0.02 0.02 0.02 0.02 0.01 0.01 0.02 0.02 0.02 0.03 0.03 0.04 0.05 0.06 0.07 0.08 0.08 0.07 0.06 0.05 0.04 0.04 0.03 0.03 0.02 0.02 0.02 0.02 0.02 0.02 0.02 0.02 0.02
0.02 0.02 0.01 0.01 0.01 0.01 0.01 0.01 0.02 0.02 0.02 0.02 0.02 0.01 0.01 0.01 0.01 0.01 0.01 0.02 0.03 0.04 0.04 0.05 0.06 0.06 0.07 0.07 0.07 0.05 0.04 0.03 0.03 0.03 0.03 0.02 0.02 0.02 0.02 0.01 0.01 0.02 0.01
0.03 0.03 0.03 0.02 0.02 0.01 0.01 0.01 0.01 0.02 0.02 0.02 0.02 0.01 0.01 0.01 0.01 0.01 0.01 0.02 0.02 0.03 0.04 0.04 0.05 0.06 0.05 0.05 0.05 0.05 0.04 0.03 0.03 0.03 0.02 0.02 0.02 0.02 0.02 0.01 0.01 0.01 0.02
0.03 0.03 0.03 0.02 0.02 0.01 0.01 0.01 0.01 0.01 0.02 0.02 0.02 0.02 0.01 0.01 0.01 0.01 0.01 0.02 0.02 0.02 0.03 0.03 0.04 0.04 0.05 0.05 0.04 0.04 0.04 0.04 0.03 0.03 0.03 0.02 0.02 0.02 0.02 0.01 0.01 0.01 0.01
0.03 0.03 0.03 0.02 0.02 0.01 0.01 0.01 0.01 0.01 0.01 0.01 0.01 0.01 0.01 0.01 0.01 0.01 0.01 0.01 0.01 0.02 0.02 0.02 0.02 0.03 0.04 0.04 0.04 0.04 0.03 0.03 0.03 0.03 0.03 0.02 0.01 0.01 0.01 0.02 0.02 0.02 0.01
0.03 0.02 0.02 0.02 0.02 0.01 0.01 0.01 0.01 0.01 0.01 0.01 0.01 0.01 0.01 0.01 0.01 0.01 0.01 0.01 0.01 0.01 0.01 0.02 0.02 0.03 0.03 0.03 0.03 0.03 0.03 0.03 0.03 0.02 0.02 0.01 0.01 0.01 0.01 0.02 0.02 0.02 0.02
0.03 0.02 0.02 0.02 0.02 0.01 0.01 0.01 0.01 0.01 0.01 0.01 0.01 0.01 0.01 0.01 0.01 0.02 0.02 0.01 0.01 0.01 0.01 0.02 0.02 0.02 0.02 0.02 0.02 0.02 0.03 0.03 0.03 0.02 0.02 0.01 0.01 0.01 0.01 0.01 0.02 0.02 0.02
0.03 0.02 0.02 0.01 0.01 0.01 0.01 0.01 0.01 0.01 0.01 0.01 0.01 0.01 0.01 0.01 0.01 0.01 0.02 0.01 0.01 0.01 0.01 0.02 0.01 0.01 0.01 0.01 0.01 0.02 0.02 0.02 0.02 0.02 0.02 0.02 0.02 0.02 0.02 0.02 0.02 0.02 0.02
0.02 0.02 0.02 0.02 0.01 0.01 0.01 0.01 0.01 0.01 0.01 0.01 0.01 0.01 0.01 0.01 0.01 0.01 0.01 0.01 0.02 0.02 0.02 0.01 0.01 0.01 0.01 0.01 0.01 0.01 0.02 0.02 0.02 0.03 0.03 0.03 0.02 0.02 0.02 0.02 0.02 0.02 0.02
0.02 0.02 0.02 0.02 0.01 0.01 0.01 0.01 0.01 0.01 0.01 0.02 0.02 0.02 0.01 0.01 0.01 0.01 0.01 0.01 0.02 0.01 0.01 0.01 0.01 0.01 0.01 0.01 0.01 0.01 0.02 0.02 0.02 0.02 0.02 0.03 0.03 0.03 0.03 0.02 0.02 0.02 0.02
0.02 0.02 0.02 0.01 0.01 0.01 0.01 0.01 0.01 0.01 0.01 0.01 0.01 0.01 0.01 0.01 0.01 0.01 0.01 0.01 0.01 0.01 0.01 0.01 0.01 0.01 0.01 0.01 0.01 0.01 0.02 0.02 0.02 0.02 0.02 0.02 0.02 0.02 0.02 0.02 0.02 0.02 0.02
0.02 0.02 0.02 0.02 0.01 0.01 0.01 0.01 0.01 0.01 0.01 0.01 0.01 0.01 0.01 0.01 0.01 0.01 0.01 0.01 0.01 0.01 0.01 0.01 0.01 0.01 0.01 0.01 0.01 0.01 0.01 0.01 0.02 0.02 0.02 0.02 0.02 0.02 0.02 0.02 0.02 0.02 0.02
0.02 0.02 0.02 0.02 0.01 0.01 0.01 0.01 0.01 0.01 0.01 0.01 0.01 0.01 0.01 0.01 0.01 0.01 0.00 0.00 0.01 0.01 0.01 0.01 0.01 0.01 0.01 0.01 0.01 0.01 0.01 0.01 0.01 0.01 0.02 0.02 0.02 0.02 0.02 0.02 0.02 0.02 0.02
0.02 0.02 0.02 0.02 0.01 0.01 0.01 0.01 0.01 0.01 0.01 0.01 0.01 0.01 0.01 0.01 0.01 0.01 0.01 0.01 0.01 0.01 0.01 0.01 0.01 0.01 0.01 0.01 0.01 0.01 0.01 0.01 0.01 0.01 0.01 0.01 0.02 0.02 0.02 0.02 0.02 0.02 0.03
0.02 0.02 0.02 0.02 0.02 0.02 0.02 0.01 0.01 0.01 0.01 0.01 0.01 0.01 0.01 0.01 0.01 0.01 0.01 0.01 0.01 0.01 0.01 0.01 0.01 0.01 0.01 0.01 0.01 0.01 0.01 0.01 0.01 0.01 0.01 0.01 0.02 0.02 0.02 0.02 0.02 0.02 0.02
0.02 0.02 0.02 0.02 0.02 0.02 0.02 0.02 0.01 0.01 0.01 0.01 0.01 0.01 0.01 0.01 0.01 0.01 0.01 0.01 0.01 0.01 0.01 0.01 0.01 0.01 0.00 0.00 0.00 0.00 0.00 0.00 0.01 0.01 0.01 0.01 0.01 0.02 0.02 0.02 0.02 0.02 0.02
0.02 0.02 0.02 0.02 0.02 0.02 0.02 0.02 0.01 0.01 0.01 0.01 0.01 0.01 0.01 0.01 0.01 0.01 0.01 0.01 0.01 0.01 0.01 0.00 0.00 0.00 0.00 0.00 0.00 0.00 0.00 0.00 0.01 0.01 0.01 0.01 0.01 0.01 0.02 0.02 0.02 0.01 0.02
0.02 0.02 0.02 0.02 0.02 0.02 0.02 0.02 0.01 0.01 0.01 0.01 0.01 0.01 0.01 0.01 0.01 0.01 0.01 0.01 0.01 0.01 0.00 0.00 0.00 0.00 0.00 0.00 0.00 0.00 0.00 0.01 0.01 0.01 0.01 0.02 0.02 0.02 0.02 0.02 0.02 0.02 0.02
MSLP
1024.69 1024.62 1024.52 1024.41 1024.29 1024.15 1024.00 1023.82 1023.62 1023.38 1023.09 1022.75 1022.36 1021.95 1021.52 1021.11 1020.74 1020.45 1020.24 1020.14 1020.13 1020.21 1020.36 1020.54 1020.73 1020.92 1021.09 1021.22 1021.34 1021.43 1021.51 1021.58 1021.64 1021.70 1021.75 1021.78 1021.79 1021.78 1021.76 1021.73 1021.71 1021.70 1021.72
1025.45 1025.40 1025.32 1025.21 1025.08 1024.93 1024.78 1024.60 1024.39 1024.13 1023.81 1023.44 1022.99 1022.51 1022.00 1021.49 1021.02 1020.61 1020.29 1020.06 1019.94 1019.89 1019.91 1019.97 1020.06 1020.15 1020.25 1020.34 1020.43 1020.53 1020.64 1020.76 1020.90 1021.03 1021.16 1021.26 1021.33 1021.36 1021.37 1021.35 1021.32 1021.29 1021.27
1026.17 1026.13 1026.04 1025.92 1025.78 1025.63 1025.46 1025.28 1025.07 1024.81 1024.48 1024.09 1023.62 1023.10 1022.55 1021.98 1021.45 1020.96 1020.55 1020.23 1019.99 1019.83 1019.73 1019.67 1019.64 1019.62 1019.62 1019.63 1019.67 1019.74 1019.84 1019.99 1020.16 1020.34 1020.52 1020.68 1020.80 1020.89 1020.92 1020.92 1020.90 1020.85 1020.80
1026.86 1026.80 1026.69 1026.55 1026.38 1026.21 1026.04 1025.85 1025.64 1025.38 1025.07 1024.68 1024.22 1023.70 1023.14 1022.56 1021.99 1021.47 1021.00 1020.61 1020.29 1020.03 1019.81 1019.63 1019.48 1019.34 1019.22 1019.14 1019.09 1019.10 1019.16 1019.27 1019.43 1019.62 1019.82 1020.01 1020.17 1020.29 1020.37 1020.40 1020.39 1020.35 1020.29
1027.55 1027.45 1027.29 1027.10 1026.91 1026.71 1026.52 1026.33 1026.12 1025.88 1025.59 1025.23 1024.80 1024.31 1023.77 1023.21 1022.65 1022.11 1021.62 1021.18 1020.79 1020.45 1020.13 1019.84 1019.57 1019.30 1019.06 1018.86 1018.70 1018.60 1018.58 1018.62 1018.73 1018.88 1019.06 1019.25 1019.42 1019.56 1019.67 1019.73 1019.76 1019.76 1019.71
1028.27 1028.10 1027.88 1027.64 1027.40 1027.17 1026.96 1026.76 1026.56 1026.35 1026.09 1025.77 1025.39 1024.95 1024.45 1023.93 1023.39 1022.86 1022.36 1021.89 1021.45 1021.04 1020.64 1020.24 1019.85 1019.47 1019.10 1018.76 1018.47 1018.25 1018.11 1018.04 1018.05 1018.12 1018.24 1018.39 1018.54 1018.69 1018.82 1018.92 1019.00 1019.04 1019.04
1029.04 1028.80 1028.51 1028.21 1027.92 1027.66 1027.43 1027.22 1027.03 1026.84 1026.61 1026.34 1026.01 1025.63 1025.18 1024.70 1024.19 1023.68 1023.18 1022.69 1022.20 1021.73 1021.25 1020.76 1020.27 1019.77 1019.28 1018.81 1018.39 1018.03 1017.74 1017.54 1017.42 1017.38 1017.40 1017.47 1017.57 1017.70 1017.84 1017.98 1018.10 1018.21 1018.27
1029.88 1029.57 1029.22 1028.87 1028.53 1028.23 1027.98 1027.77 1027.58 1027.41 1027.21 1026.98 1026.70 1026.35 1025.96 1025.51 1025.03 1024.53 1024.02 1023.50 1022.98 1022.45 1021.90 1021.33 1020.75 1020.15 1019.55 1018.97 1018.42 1017.93 1017.50 1017.15 1016.88 1016.69 1016.59 1016.55 1016.58 1016.65 1016.78 1016.93 1017.09 1017.26 1017.40
1030.78 1030.41 1030.02 1029.62 1029.25 1028.92 1028.65 1028.43 1028.24 1028.07 1027.90 1027.69 1027.43 1027.12 1026.75 1026.32 1025.85 1025.35 1024.83 1024.29 1023.73 1023.15 1022.54 1021.91 1021.26 1020.59 1019.90 1019.23 1018.57 1017.96 1017.39 1016.90 1016.48 1016.14 1015.88 1015.71 1015.63 1015.62 1015.69 1015.83 1016.01 1016.21 1016.42
1031.71 1031.32 1030.90 1030.47 1030.08 1029.73 1029.44 1029.20 1029.00 1028.83 1028.64 1028.44 1028.19 1027.88 1027.52 1027.10 1026.63 1026.12 1025.58 1025.01 1024.42 1023.81 1023.16 1022.49 1021.80 1021.07 1020.34 1019.59 1018.86 1018.15 1017.47 1016.84 1016.27 1015.77 1015.36 1015.03 1014.81 1014.69 1014.67 1014.75 1014.91 1015.12 1015.35
1032.66 1032.26 1031.83 1031.40 1030.99 1030.62 1030.31 1030.05 1029.83 1029.62 1029.42 1029.19 1028.92 1028.60 1028.23 1027.80 1027.32 1026.80 1026.25 1025.67 1025.07 1024.44 1023.78 1023.10 1022.39 1021.65 1020.88 1020.11 1019.32 1018.54 1017.77 1017.03 1016.33 1015.68 1015.10 1014.61 1014.23 1013.96 1013.80 1013.77 1013.85 1014.02 1014.25
1033.57 1033.19 1032.77 1032.34 1031.93 1031.56 1031.23 1030.93 1030.68 1030.43 1030.19 1029.92 1029.62 1029.27 1028.87 1028.42 1027.94 1027.41 1026.86 1026.29 1025.69 1025.07 1024.44 1023.77 1023.07 1022.35 1021.59 1020.81 1020.01 1019.19 1018.36 1017.53 1016.71 1015.92 1015.19 1014.53 1013.96 1013.51 1013.19 1013.00 1012.95 1013.01 1013.17
1034.42 1034.07 1033.68 1033.27 1032.87 1032.49 1032.14 1031.82 1031.52 1031.22 1030.92 1030.61 1030.26 1029.87 1029.45 1028.99 1028.50 1027.99 1027.46 1026.92 1026.35 1025.78 1025.18 1024.56 1023.91 1023.22 1022.50 1021.74 1020.95 1020.11 1019.24 1018.35 1017.44 1016.54 1015.66 1014.83 1014.08 1013.43 1012.91 1012.53 1012.29 1012.19 1012.21
1035.18 1034.87 1034.52 1034.14 1033.76 1033.39 1033.02 1032.67 1032.33 1031.99 1031.64 1031.26 1030.87 1030.45 1030.01 1029.55 1029.07 1028.59 1028.10 1027.61 1027.11 1026.59 1026.06 1025.50 1024.92 1024.29 1023.62 1022.90 1022.12 1021.30 1020.42 1019.49 1018.52 1017.53 1016.53 1015.55 1014.63 1013.78 1013.05 1012.44 1011.97 1011.65 1011.47
1035.84 1035.58 1035.27 1034.94 1034.59 1034.23 1033.87 1033.50 1033.13 1032.75 1032.35 1031.93 1031.49 1031.05 1030.60 1030.15 1029.70 1029.26 1028.83 1028.40 1027.97 1027.54 1027.08 1026.60 1026.08 1025.52 1024.90 1024.22 1023.48 1022.68 1021.81 1020.87 1019.87 1018.82 1017.74 1016.65 1015.58 1014.55 1013.61 1012.77 1012.06 1011.49 1011.07
1036.38 1036.17 1035.92 1035.64 1035.34 1035.02 1034.68 1034.31 1033.93 1033.52 1033.09 1032.64 1032.18 1031.72 1031.27 1030.83 1030.42 1030.03 1029.66 1029.31 1028.95 1028.59 1028.21 1027.79 1027.33 1026.82 1026.25 1025.62 1024.92 1024.15 1023.30 1022.37 1021.38 1020.31 1019.19 1018.03 1016.85 1015.69 1014.57 1013.52 1012.57 1011.75 1011.06
1036.80 1036.64 1036.46 1036.25 1036.01 1035.75 1035.45 1035.11 1034.73 1034.32 1033.88 1033.41 1032.94 1032.47 1032.03 1031.62 1031.24 1030.89 1030.58 1030.28 1029.99 1029.69 1029.36 1028.99 1028.57 1028.09 1027.55 1026.95 1026.28 1025.54 1024.72 1023.84 1022.87 1021.83 1020.71 1019.53 1018.30 1017.05 1015.80 1014.58 1013.43 1012.36 1011.42
1037.08 1036.99 1036.89 1036.76 1036.60 1036.40 1036.16 1035.87 1035.52 1035.12 1034.69 1034.22 1033.75 1033.29 1032.85 1032.45 1032.10 1031.78 1031.50 1031.25 1030.99 1030.71 1030.41 1030.06 1029.65 1029.18 1028.65 1028.06 1027.41 1026.70 1025.93 1025.09 1024.18 1023.19 1022.12 1020.97 1019.74 1018.46 1017.14 1015.80 1014.49 1013.23 1012.08
1037.22 1037.21 1037.19 1037.15 1037.08 1036.97 1036.80 1036.56 1036.25 1035.89 1035.47 1035.01 1034.54 1034.08 1033.65 1033.26 1032.92 1032.61 1032.35 1032.09 1031.84 1031.56 1031.25 1030.88 1030.46 1029.97 1029.43 1028.83 1028.19 1027.50 1026.77 1025.99 1025.15 1024.24 1023.25 1022.16 1020.98 1019.72 1018.38 1016.99 1015.59 1014.20 1012.88
1037.23 1037.29 1037.35 1037.41 1037.43 1037.40 1037.30 1037.12 1036.86 1036.53 1036.13 1035.69 1035.23 1034.77 1034.33 1033.94 1033.59 1033.28 1033.00 1032.73 1032.45 1032.14 1031.79 1031.38 1030.91 1030.39 1029.82 1029.20 1028.55 1027.88 1027.18 1026.45 1025.69 1024.86 1023.96 1022.96 1021.86 1020.66 1019.35 1017.97 1016.53 1015.07 1013.65
1037.10 1037.24 1037.39 1037.52 1037.62 1037.65 1037.62 1037.49 1037.28 1036.97 1036.59 1036.16 1035.70 1035.24 1034.80 1034.40 1034.03 1033.69 1033.38 1033.08 1032.75 1032.40 1031.99 1031.53 1031.00 1030.43 1029.81 1029.16 1028.50 1027.83 1027.15 1026.47 1025.76 1025.01 1024.19 1023.29 1022.28 1021.16 1019.92 1018.58 1017.16 1015.70 1014.25
1036.88 1037.08 1037.29 1037.48 1037.63 1037.72 1037.72 1037.63 1037.44 1037.15 1036.78 1036.36 1035.90 1035.44 1034.99 1034.57 1034.18 1033.82 1033.47 1033.12 1032.75 1032.34 1031.87 1031.35 1030.77 1030.14 1029.47 1028.79 1028.10 1027.42 1026.75 1026.08 1025.41 1024.72 1023.97 1023.15 1022.22 1021.19 1020.03 1018.76 1017.41 1015.99 1014.57
1036.58 1036.83 1037.08 1037.30 1037.48 1037.58 1037.60 1037.52 1037.33 1037.05 1036.68 1036.26 1035.80 1035.34 1034.88 1034.45 1034.04 1033.65 1033.27 1032.89 1032.47 1032.01 1031.50 1030.92 1030.29 1029.61 1028.90 1028.18 1027.46 1026.76 1026.07 1025.41 1024.75 1024.08 1023.37 1022.60 1021.74 1020.78 1019.70 1018.52 1017.25 1015.92 1014.57
1036.27 1036.54 1036.80 1037.02 1037.19 1037.28 1037.29 1037.19 1036.99 1036.70 1036.33 1035.90 1035.45 1034.98 1034.52 1034.08 1033.67 1033.27 1032.87 1032.45 1032.01 1031.52 1030.97 1030.36 1029.69 1028.98 1028.23 1027.47 1026.72 1025.98 1025.27 1024.58 1023.91 1023.23 1022.53 1021.77 1020.95 1020.04 1019.03 1017.94 1016.76 1015.53 1014.29
1035.97 1036.24 1036.48 1036.68 1036.82 1036.88 1036.84 1036.71 1036.49 1036.18 1035.80 1035.37 1034.92 1034.46 1034.01 1033.57 1033.15 1032.75 1032.34 1031.91 1031.45 1030.94 1030.36 1029.73 1029.04 1028.30 1027.52 1026.74 1025.95 1025.17 1024.42 1023.69 1022.98 1022.27 1021.55 1020.79 1019.98 1019.10 1018.16 1017.14 1016.07 1014.95 1013.82
1035.72 1035.96 1036.17 1036.32 1036.41 1036.42 1036.34 1036.17 1035.92 1035.59 1035.20 1034.77 1034.32 1033.86 1033.42 1032.99 1032.58 1032.17 1031.75 1031.32 1030.84 1030.31 1029.73 1029.08 1028.37 1027.61 1026.81 1025.99 1025.17 1024.36 1023.56 1022.78 1022.01 1021.26 1020.50 1019.72 1018.91 1018.06 1017.17 1016.23 1015.25 1014.26 1013.26
Thickness
5456 5458 5459 5460 5460 5461 5462 5463 5464 5465 5466 5467 5468 5469 5469 5470 5470 5470 5471 5471 5471 5472 5471 5471 5470 5469 5468 5466 5464 5463 5462 5461 5461 5461 5459 5458 5458 5458 5457 5458 5458 5459 5460
5443 5444 5446 5447 5448 5449 5450 5451 5452 5452 5453 5454 5455 5456 5457 5457 5457 5458 5458 5459 5459 5459 5459 5459 5458 5457 5457 5455 5454 5453 5452 5451 5450 5450 5448 5447 5446 5446 5446 5446 5447 5447 5448
5430 5431 5432 5433 5435 5436 5437 5437 5438 5439 5440 5440 5441 5442 5443 5444 5444 5445 5445 5446 5446 5446 5446 5447 5447 5445 5445 5444 5443 5442 5441 5440 5439 5438 5437 5435 5434 5434 5434 5434 5434 5434 5435
5416 5417 5418 5419 5420 5421 5423 5424 5425 5426 5427 5427 5428 5428 5429 5430 5431 5431 5432 5432 5432 5432 5432 5433 5434 5434 5433 5433 5432 5431 5429 5428 5426 5425 5424 5423 5422 5421 5421 5421 5421 5421 5422
5402 5403 5404 5405 5405 5407 5409 5410 5411 5413 5414 5414 5414 5414 5415 5416 5417 5418 5418 5419 5419 5419 5419 5419 5420 5421 5420 5421 5421 5420 5418 5416 5414 5413 5412 5410 5410 5408 5408 5408 5408 5408 5409
5388 5388 5389 5390 5392 5393 5395 5396 5397 5399 5399 5400 5400 5400 5401 5402 5404 5405 5405 5405 5405 5405 5406 5407 5407 5408 5408 5408 5409 5408 5407 5405 5404 5402 5401 5400 5400 5398 5396 5395 5394 5394 5395
5373 5374 5375 5376 5378 5379 5381 5382 5383 5384 5384 5385 5385 5385 5386 5387 5389 5391 5391 5390 5390 5390 5392 5393 5394 5395 5395 5396 5396 5395 5394 5393 5391 5390 5389 5388 5387 5387 5384 5383 5382 5381 5381
5359 5360 5360 5362 5364 5365 5366 5368 5369 5369 5370 5371 5371 5371 5371 5373 5375 5376 5376 5375 5376 5376 5377 5378 5379 5380 5381 5382 5382 5381 5380 5378 5377 5376 5375 5375 5374 5372 5371 5370 5369 5367 5367
5344 5345 5346 5347 5349 5351 5352 5353 5354 5355 5356 5356 5356 5357 5358 5359 5361 5362 5362 5361 5362 5362 5363 5364 5365 5366 5367 5368 5368 5368 5366 5364 5363 5362 5361 5361 5360 5359 5357 5356 5354 5353 5354
5330 5331 5332 5333 5334 5336 5337 5338 5339 5340 5341 5341 5342 5342 5343 5344 5346 5347 5348 5349 5349 5349 5350 5351 5351 5352 5353 5353 5352 5352 5352 5351 5348 5347 5346 5346 5345 5344 5343 5342 5341 5339 5339
5315 5316 5317 5318 5320 5321 5322 5323 5324 5325 5326 5326 5327 5327 5328 5329 5331 5333 5334 5334 5335 5335 5336 5337 5338 5339 5339 5339 5338 5337 5337 5335 5334 5332 5331 5331 5330 5329 5328 5327 5326 5325 5324
5300 5301 5303 5304 5305 5306 5307 5308 5309 5309 5310 5311 5312 5313 5313 5314 5316 5318 5319 5320 5321 5321 5322 5322 5323 5324 5324 5324 5322 5322 5321 5320 5319 5317 5317 5316 5315 5315 5313 5312 5311 5310 5310
5285 5286 5288 5289 5291 5292 5292 5293 5293 5293 5295 5296 5296 5297 5298 5300 5301 5303 5304 5306 5306 5306 5306 5307 5308 5309 5309 5308 5307 5306 5305 5305 5304 5302 5301 5301 5299 5298 5298 5297 5296 5295 5296
5271 5272 5273 5275 5276 5276 5276 5278 5278 5279 5280 5281 5281 5283 5283 5285 5287 5288 5289 5290 5291 5291 5290 5291 5292 5292 5292 5291 5290 5289 5288 5287 5287 5287 5286 5285 5284 5283 5281 5280 5279 5279 5280
5257 5258 5259 5260 5260 5261 5261 5262 5264 5265 5265 5266 5267 5268 5269 5271 5274 5275 5276 5276 5276 5276 5275 5274 5275 5274 5274 5273 5273 5272 5272 5271 5270 5269 5269 5268 5268 5267 5266 5264 5263 5262 5262
5244 5245 5246 5246 5245 5246 5246 5247 5249 5251 5253 5254 5255 5256 5257 5259 5260 5262 5263 5263 5263 5262 5259 5258 5257 5257 5257 5256 5255 5255 5254 5254 5253 5252 5252 5252 5251 5251 5250 5249 5248 5247 5247
5231 5232 5232 5232 5232 5231 5231 5232 5233 5236 5238 5239 5241 5242 5243 5244 5246 5247 5247 5247 5247 5245 5242 5241 5241 5241 5240 5240 5239 5238 5238 5237 5236 5236 5236 5236 5236 5235 5235 5234 5234 5233 5232
5218 5219 5219 5219 5218 5218 5217 5217 5218 5219 5221 5222 5224 5226 5227 5229 5230 5231 5231 5231 5228 5226 5225 5224 5224 5224 5224 5223 5223 5222 5222 5222 5221 5221 5220 5220 5220 5220 5220 5219 5219 5218 5218
5206 5206 5206 5206 5205 5205 5205 5204 5204 5204 5205 5207 5208 5210 5210 5212 5213 5214 5213 5212 5211 5210 5209 5209 5208 5208 5208 5208 5207 5207 5207 5207 5207 5206 5205 5205 5205 5205 5205 5205 5204 5204 5203
5193 5194 5194 5193 5192 5192 5192 5192 5192 5192 5192 5193 5194 5195 5195 5194 5194 5195 5194 5194 5195 5195 5195 5194 5194 5193 5193 5193 5192 5192 5192 5192 5192 5192 5192 5191 5190 5190 5190 5190 5190 5190 5190
5182 5182 5181 5181 5180 5180 5180 5180 5180 5179 5179 5180 5181 5182 5184 5182 5182 5181 5180 5180 5180 5181 5181 5181 5180 5180 5180 5179 5179 5179 5178 5178 5178 5178 5177 5177 5176 5176 5176 5176 5176 5176 5176
5171 5170 5170 5169 5169 5169 5168 5168 5167 5167 5168 5168 5169 5169 5170 5169 5169 5168 5168 5168 5168 5168 5168 5167 5167 5166 5166 5166 5166 5166 5165 5165 5165 5164 5164 5163 5163 5162 5162 5162 5162 5162 5162
5161 5160 5160 5159 5158 5158 5157 5156 5156 5155 5155 5156 5156 5156 5155 5155 5155 5155 5156 5156 5155 5155 5155 5155 5154 5154 5154 5154 5154 5154 5153 5154 5153 5152 5151 5151 5150 5149 5149 5149 5149 5149 5149
5150 5149 5149 5149 5147 5147 5146 5146 5145 5145 5145 5144 5144 5144 5144 5143 5143 5144 5144 5144 5143 5144 5143 5143 5143 5143 5143 5143 5143 5143 5143 5143 5142 5141 5140 5139 5138 5138 5137 5137 5137 5137 5137
5139 5138 5138 5137 5137 5136 5136 5135 5135 5134 5134 5134 5134 5134 5134 5133 5133 5133 5133 5133 5133 5133 5133 5133 5133 5133 5133 5133 5133 5133 5133 5132 5132 5131 5130 5129 5129 5128 5126 5126 5127 5127 5126
5129 5128 5127 5126 5125 5125 5125 5125 5125 5124 5124 5124 5124 5124 5124 5124 5124 5124 5123 5123 5123 5123 5123 5124 5124 5124 5124 5124 5124 5124 5124 5124 5124 5123 5122 5121 5120 5119 5118 5117 5117 5117 5117